Location: Gwatt
(46.7204°N, 7.6223°E)
Time: 16:31:28
(UTC+00:00)

deb Explorer IX - Pass Details

Date: 26 January 2021
Orbit: 537 x 1102 km, 38.8° (Epoch: 04 March)

Event Time Altitude Azimuth Distance (km) Brightness Sun altitude
Rises 15:32:30 0° 216° (SW) 3,849 ? 6.7°
Reaches altitude 10° 15:35:56 10° 203° (SSW) 2,838 ? 6.2°
Maximum altitude 15:41:01 22° 155° (SSE) 1,980 ? 5.5°
Drops below altitude 10° 15:45:42 10° 107° (ESE) 2,585 ? 4.9°
Sets 15:48:39 0° 92° (E) 3,424 ? 4.4°
